Погода в Кыре

Погода в Кыре : погода сейчас, прогноз погоды и архив. Всё, что Вы хотите узнать о погоде в Кыре!

Хотите узнать прогноз погоды в Кыре? Тогда Вам сюда: Погода в Кыре

Поиск расширенной информации на нашем сайте:

Другие новости

Новости СМИ2

Главная страница сайта

Новости сайта

02.10.2013

Напоминаем, что на нашем новом сайте вы можете получить высокодетализированные прогнозы погоды по пунктам России, СНГ и мира (включающие важные для авиации метеовеличины, такие как направление и скорость ветра, видимость, явления погоды, количество и форма облачности, нижняя и верхняя граница облачности), а также ознакомиться с разнообразными материалами по авиационной метеорологии и подборкой полезных ссылок на эту тему.

Сайт Метеоцентр.Азия посвящён разработке технологий оптимизации авиаметеорологического обслуживания, включая проектирование и перспективное создание нескольких автоматизированных авиаметеорологических систем:
- система выпуска высокодетальных прогностических карт явлений погоды для нижнего воздушного пространства по России и ближнему зарубежью;
- система верификации прогнозов TAF (выпускаемых синоптиками официальных АМСГ РФ и ближнего зарубежья) и AUTOTAF (выпускаемых сайтом Метеоцентр.Азия) - выявление ошибок, онлайн-сопоставление с фактической погодой METAR, автоматическое внесение коррективов в прогнозы при резком отклонении фактической погоды от прогноза, подсчёт оправдываемости прогнозов по элементам и в целом;
- система обработки, анализа и отображения авиаметеорологической информации для применения провайдерами метеорологической информации.

Рекомендуем: содержание мастер класса

Погода в Кыре - сегодня

Время (UTC), дата Ветер
(°,м/с) 
Видим.   Явления Облачность Т
(°С)
Тd
(°С)
f(%) Тe
(°С)
Pmin
(гПа)
dP
(гПа)
Po
(мм)
O2
(г/м3)
Тmin Tmax R s Состояние
почвы
09 23.03.17 210 (ЮЗ) 20000 м    8/3 1000 м средняя, верхняя 
[Cu hum|Ac trans|Ci fib]
+4.5 -10.3 33 +5  1023.6  -1.1  688  273           
12 23.03.17 020 (С) 20000 м    3/3 1000 м 
[Sc]
-1.3 -8 60 -2  1027.2  1.1  688  279    +5.4       
15 23.03.17 030 (СВ) 20000 м    ясно 
-5.2 -7.8 82 -5  1030.1  1.1  689  284           
18 23.03.17 тихо ()   20000 м    ясно 
-7.4 -9.4 86 -7  1031.7  0.6  690  286           
21 23.03.17 350 (С) 20000 м    ясно 
-7.7 -9.9 84 -7  1031.8  0.1  690  287           
00 24.03.17 250 (З) 20000 м    8/3 1000 м средняя, верхняя 
[Sc|Ac trans|Ci fib]
-3.8 -12.2 52 -5  1030.8  0.6  690  283  -7.9      мокрый или
старый снег
10-40% 
03 24.03.17 010 (С) 20000 м    9/0 средняя, верхняя 
[Ac trans|Cc]
+0.5 -13.1 35 1028.7  -0.2  690  278           
06 24.03.17 340 (С) 20000 м    9/3 1000 м средняя, верхняя 
[Cu hum|Ac lent|Ci fib]
+2.8 -14.9 26 +1  1026.2  -1.4  689  276           
09 24.03.17 330 (СЗ) 20000 м    9/4 1000 м средняя 
[Sc|Ac trans]
+2 -12.4 33 1025.5  -0.9  688  276           
12 24.03.17 310 (СЗ) 20000 м    8/3 1000 м средняя 
[Sc|Ac trans]
-0.3 -10.6 46 -2  1027.6  689  279    +3.4       
15 24.03.17 270 (З) 20000 м    3/0 средняя 
[Ac trans]
-3.8 -10.6 59 -5  1029.9  0.8  689  283           
18 24.03.17 300 (СЗ) 20000 м    3/0 средняя, верхняя 
[Ac trans|Ci fib]
-5.8 -11.3 65 -7  1030  -0.7  689  285           
21 24.03.17 230 (ЮЗ) 20000 м    9/4 1000 м средняя 
[Sc|Ac trans]
-5.8 -9.9 73 -5  1029.1  -0.8  688  284           
00 25.03.17 110 (В) 20000 м    8/3 1000 м средняя, верхняя 
[Sc|Ac trans|Ci fib]
-4.6 -9 71 -4  1028.4  0.1  688  283  -6.7         
03 25.03.17 320 (СЗ) 20000 м    9/3 1000 м средняя, верхняя 
[Cu med, cong|Ac lent|Ci fib]
+1 -11 40 1025.3  -0.7  688  277           
06 25.03.17 360 (С) 20000 м    9/4 1000 м кучево-дожд., средняя, верхняя 
[Cb cap|Ac trans|Ci]
+2.8 -12.6 31 +1  1022.6  -1.8  686  275           
09 25.03.17 340 (С) 20000 м    9/6 1000 м кучево-дожд., средняя, верхняя 
[Cb cap|Ac trans|Ci fib]
+1.9 -12.6 33 1022.4  -0.5  686  275           
12 25.03.17 030 (СВ) 20000 м    8/3 1000 м кучево-дожд., средняя, верхняя 
[Cb cap|Ac lent|Ci fib]
-1.5 -9.2 56 -1  1024.8  0.9  687  279    +3.4       
15 25.03.17 010 (С) 20000 м    6/3 1000 м средняя 
[Sc|Ac trans]
-6.5 -9.8 77 -6  1026.9  0.1  687  284           
18 25.03.17 010 (С) 20000 м    4/0 средняя 
[Ac trans]
-7.6 -10.8 78 -7  1026.9  -0.4  686  285           
21 25.03.17 тихо ()   20000 м    4/0 средняя 
[Ac trans]
-9 -11 85 -9  1027.3  -0.2  686  287           
00 26.03.17 040 (СВ) 20000 м    8/1 1000 м средняя, верхняя 
[Cu hum|Ac trans|Ci fib]
-8.2 -12.1 73 -8  1028.2  1.1  687  286  -10.9         
03 26.03.17 340 (С) 20000 м    4/3 1000 м кучево-дожд., верхняя 
[Cb cap|Ci fib]
-0.3 -9.2 51 1024.9  0.1  687  278           
06 26.03.17 250 (З) 20000 м    6/3 1000 м кучево-дожд., средняя 
[Cb cap|Ac trans]
+3.1 -11.7 33 +4  1022.2  -1.2  686  274           
09 26.03.17 140 (ЮВ) 20000 м    6/3 1000 м верхняя 
[Cu hum|Ci fib]
+3.8 -11.8 31 +3  1020.7  -1.2  685  273           
Время (UTC), дата Ветер
(°,м/с) 
Видим.   Явления Облачность Т
(°С)
Тd
(°С)
f(%) Тe
(°С)
Pmin
(гПа)
dP
(гПа)
Po
(мм)
O2
(г/м3)
Тmin Tmax R s Состояние
почвы

Для получения пояснительной информации подведите курсор к названию столбца.

ПОГОДА в Кыре - архив

Всё, что Вы хотите узнать о погоде в Кыре - удобно и подробно!

Выберите нужную дату (начиная с 1 января 2015* года) и нажмите кнопку "Найти".
Будут отображены архивные сводки погоды по пункту Кыра, начиная с указанной даты.


Отображать данные в формате CSV (для использования в таблицах Excel)


Внимание! Наш архив погоды предназначен исключительно для личного некоммерческого использования в познавательных целях. Если Вам необходимы официальные справки о состоянии погоды (для производственных, юридических, коммерческих и т.п. целей), обращайтесь в органы Росгидромета.

*Примечание: данная дата относится к архиву по метеостанциям СССР (Россия, СНГ, Балтия).
Архив по метеостанциям Зарубежной Европы и Азии (кроме Китая) хранится 10 дней, по другим регионам земного шара (Китай, Африка, Америка, Австралия, Океания) - 1 день.

Кыра - район местоположения метеостанции


Название, широта, долгота, высота метеостанции:
Кыра 49.6°ш. 112°д. 908 м над ур. моря [Российская Федерация]

Дополнительная информация

В oтличие oт бoльшинства пoгoдных сайтoв мы публикуем пoдрoбную метеoинфoрмацию в детальнoм прoфессиoнальнoм фoрмате.

Характеристики температуры и влажнoсти вoздуха измеряются на высoте 2 м в тени вдали oт зданий и деревьев.
Скoрoсть ветра измеряется на высoте 10 м (на урoвне рoста челoвека скoрoсть ветра ниже в 1.5-2 раза). Если метеoстанция нахoдится в гoрoде или в лесу, тo скoрoсть ветра занижена на 2-4 м/с пo сравнению с oткрытым местoм. Скoрoсть ветра над акватoриями крупных рек и oзёр, а также на вершинах хoлмoв на 2-5 м/с выше, чем в oбычных услoвиях.
Атмoсфернoе давление в разных тoчках местнoсти мoжет значительнo oтличаться oт давления на метеoстанции, в зависимoсти oт услoвий рельефа (при пoдъёме на 10 м давление пoнижается примернo на 1 мм рт.ст.).